Weather History for EHLW - October, 2013

Change the Weather History Date:

Monday, October 14, 2013

  Actual Average Record
Temperature  
Mean Temperature 49 °F -  
Max Temperature 52 °F 51 °F 69 °F (2001)
Min Temperature 46 °F 41 °F 35 °F (2011)
Degree Days  
Heating Degree Days 16    
Moisture  
Dew Point 46 °F    
Average Humidity 86    
Maximum Humidity 93    
Minimum Humidity 77    
Precipitation  
Precipitation 0.00 in - - ()
Sea Level Pressure  
Sea Level Pressure 29.89 in    
Wind  
Wind Speed 11 mph ()    
Max Wind Speed 16 mph    
Max Gust Speed -    
Visibility 6.1 miles    
Events Rain    
Averages and records for this station are not official NWS values.
T = Trace of Precipitation, MM = Missing Value Source: Averaged Metar Reports

Daily Weather History Graph

Daily Weather History Graph

Search for Another Location

Airport or City:

Trip Planner

Search our weather history database for the weather conditions in past years. The results will help you decide how hot, cold, wet, or windy it might be!

Date:

Astronomy

Oct. 14, 2013 Rise Set
Actual Time 8:01 AM CEST 6:43 PM CEST
Civil Twilight 7:26 AM CEST 7:18 PM CEST
Nautical Twilight 6:46 AM CEST 7:58 PM CEST
Astronomical Twilight 6:06 AM CEST 8:38 PM CEST
Moon 4:35 PM CEST (10/14) 2:22 AM CEST (10/14)
Length of Visible Light 11h 51m
Length of Day
10h 41m
Waxing Gibbous, 77% of the Moon is Illuminated
Oct 14
Waxing Gibbous
Oct 19
Full
Oct 27
Last Quarter
Nov 3
New
Nov 10
First Quarter

Hourly Weather History & Observations

Time (CEST) Temp. Windchill Dew Point Humidity Pressure Visibility Wind Dir Wind Speed Gust Speed Precip Events Conditions
12:25 AM 48.2 °F - 42.8 °F 82% 29.95 in 6.2 mi SE 15.0 mph - N/A   Overcast
12:55 AM 48.2 °F - 42.8 °F 82% 29.95 in 6.2 mi SE 15.0 mph - N/A   Overcast
1:07 AM 48.2 °F - 42.8 °F 82% 29.95 in 6.2 mi SE 16.1 mph - N/A   Overcast
1:25 AM 48.2 °F - 42.8 °F 82% 29.95 in 6.2 mi SE 12.7 mph - N/A   Mostly Cloudy
1:55 AM 48.2 °F - 42.8 °F 82% 29.92 in 6.2 mi SE 13.8 mph - N/A   Overcast
2:00 AM 48 °F - 43 °F 77% 29.94 in 19 mi SE 13.4 mph - -   Partly Cloudy
2:25 AM 48.2 °F - 42.8 °F 82% 29.92 in 6.2 mi SE 12.7 mph - N/A   Overcast
2:55 AM 48.2 °F - 44.6 °F 87% 29.92 in 6.2 mi ESE 12.7 mph - N/A   Overcast
3:10 AM 48.2 °F - 42.8 °F 82% 29.92 in 6.2 mi ESE 12.7 mph - N/A   Overcast
3:19 AM 48.2 °F - 42.8 °F 82% 29.92 in 6.2 mi SE 9.2 mph - N/A   Overcast
3:25 AM 48.2 °F - 42.8 °F 82% 29.92 in 6.2 mi SE 10.4 mph - N/A   Overcast
3:55 AM 48.2 °F - 42.8 °F 82% 29.92 in 6.2 mi ESE 12.7 mph - N/A   Overcast
4:25 AM 48.2 °F - 42.8 °F 82% 29.92 in 6.2 mi ESE 13.8 mph - N/A   Overcast
4:55 AM 48.2 °F - 42.8 °F 82% 29.92 in 6.2 mi ESE 10.4 mph - N/A   Overcast
5:25 AM 48.2 °F - 42.8 °F 82% 29.92 in 6.2 mi ESE 12.7 mph - N/A   Overcast
5:42 AM 48.2 °F - 44.6 °F 87% 29.92 in 4.3 mi ESE 12.7 mph - N/A   Overcast
5:55 AM 46.4 °F 40.7 °F 44.6 °F 93% 29.92 in 6.2 mi SE 12.7 mph - N/A   Overcast
6:05 AM 46.4 °F 40.7 °F 44.6 °F 93% 29.92 in 4.3 mi SE 12.7 mph - N/A   Overcast
6:14 AM 46.4 °F 40.7 °F 44.6 °F 93% 29.92 in - SE 12.7 mph - N/A   Light Drizzle
6:20 AM 46.4 °F 41.5 °F 44.6 °F 93% 29.92 in 3.1 mi SE 10.4 mph - N/A   Light Drizzle
6:25 AM 46.4 °F 41.5 °F 44.6 °F 93% 29.92 in - ESE 10.4 mph - N/A   Light Drizzle
6:37 AM 46.4 °F 40.7 °F 44.6 °F 93% 29.92 in 3.1 mi ESE 12.7 mph - N/A   Drizzle
6:41 AM 46.4 °F 40.7 °F 44.6 °F 93% 29.92 in - ESE 12.7 mph - N/A   Light Drizzle
6:45 AM 46.4 °F 41.1 °F 44.6 °F 93% 29.92 in 3.1 mi ESE 11.5 mph - N/A   Overcast
6:55 AM 46.4 °F 41.5 °F 44.6 °F 93% 29.92 in 5.0 mi ESE 10.4 mph - N/A   Overcast
7:25 AM 46.4 °F 41.1 °F 44.6 °F 93% 29.92 in 6.2 mi ESE 11.5 mph - N/A   Overcast
7:55 AM 48.2 °F - 44.6 °F 87% 29.92 in 6.2 mi ESE 12.7 mph - N/A   Overcast
8:00 AM 47 °F - 44 °F 86% 29.93 in 11 mi ESE 11.2 mph - - Rain Drizzle
8:25 AM 48.2 °F - 44.6 °F 87% 29.92 in 6.2 mi ESE 10.4 mph - N/A   Overcast
8:55 AM 48.2 °F - 44.6 °F 87% 29.92 in 6.2 mi SE 10.4 mph - N/A   Overcast
9:25 AM 48.2 °F - 44.6 °F 87% 29.92 in 6.2 mi SE 11.5 mph - N/A   Overcast
9:55 AM 48.2 °F - 44.6 °F 87% 29.92 in 6.2 mi SE 11.5 mph - N/A   Overcast
10:25 AM 48.2 °F - 44.6 °F 87% 29.92 in 6.2 mi SSE 10.4 mph - N/A   Overcast
10:55 AM 50.0 °F - 44.6 °F 82% 29.92 in 6.2 mi SSE 8.1 mph - N/A   Mostly Cloudy
11:02 AM 50.0 °F - 44.6 °F 82% 29.92 in 6.2 mi SSE 9.2 mph - N/A   Mostly Cloudy
11:06 AM 50.0 °F - 44.6 °F 82% 29.92 in 6.2 mi SSE 10.4 mph - N/A   Mostly Cloudy
11:25 AM 48.2 °F - 44.6 °F 87% 29.92 in 6.2 mi SSE 11.5 mph - N/A   Overcast
11:30 AM 50.0 °F - 46.4 °F 87% 29.92 in 6.2 mi SSE 9.2 mph - N/A   Overcast
11:55 AM 50.0 °F - 46.4 °F 87% 29.92 in 6.2 mi SSE 10.4 mph - N/A   Mostly Cloudy
12:18 PM 50.0 °F - 46.4 °F 87% 29.92 in 6.2 mi SSE 10.4 mph - N/A   Overcast
12:25 PM 50.0 °F - 46.4 °F 87% 29.92 in 6.2 mi South 10.4 mph - N/A   Overcast
12:28 PM 50.0 °F - 46.4 °F 87% 29.92 in 6.2 mi South 11.5 mph - N/A   Mostly Cloudy
12:39 PM 50.0 °F - 46.4 °F 87% 29.92 in 6.2 mi SSE 9.2 mph - N/A   Mostly Cloudy
12:46 PM 50.0 °F - 46.4 °F 87% 29.92 in 6.2 mi SSE 10.4 mph - N/A   Mostly Cloudy
12:55 PM 50.0 °F - 46.4 °F 87% 29.92 in 6.2 mi SSE 11.5 mph - N/A   Overcast
1:25 PM 51.8 °F - 46.4 °F 82% 29.92 in 6.2 mi SSE 11.5 mph - N/A   Overcast
1:55 PM 51.8 °F - 46.4 °F 82% 29.92 in 6.2 mi South 12.7 mph - N/A   Overcast
2:00 PM 51 °F - 47 °F 80% 29.91 in 12 mi South 11.2 mph - -   Partly Cloudy
2:04 PM 51.8 °F - 46.4 °F 82% 29.89 in 6.2 mi SSE 11.5 mph - N/A   Mostly Cloudy
2:07 PM 51.8 °F - 46.4 °F 82% 29.89 in 6.2 mi SSE 10.4 mph - N/A   Mostly Cloudy
2:12 PM 51.8 °F - 46.4 °F 82% 29.89 in 6.2 mi SSE 9.2 mph - N/A   Overcast
2:16 PM 51.8 °F - 46.4 °F 82% 29.89 in 6.2 mi South 10.4 mph - N/A   Overcast
2:25 PM 51.8 °F - 46.4 °F 82% 29.89 in 6.2 mi South 9.2 mph - N/A   Mostly Cloudy
2:55 PM 51.8 °F - 46.4 °F 82% 29.89 in 6.2 mi SSE 10.4 mph - N/A   Overcast
2:56 PM 51.8 °F - 46.4 °F 82% 29.89 in 6.2 mi SSE 10.4 mph - N/A   Overcast
3:25 PM 51.8 °F - 46.4 °F 82% 29.89 in 6.2 mi SSE 10.4 mph - N/A   Overcast
3:26 PM 51.8 °F - 46.4 °F 82% 29.89 in 6.2 mi SSE 9.2 mph - N/A   Overcast
3:55 PM 51.8 °F - 46.4 °F 82% 29.89 in 6.2 mi SSE 9.2 mph - N/A   Overcast
4:25 PM 51.8 °F - 46.4 °F 82% 29.89 in 6.2 mi SSE 10.4 mph - N/A   Overcast
4:40 PM 51.8 °F - 48.2 °F 88% 29.89 in 6.2 mi SE 10.4 mph - N/A   Overcast
4:44 PM 51.8 °F - 48.2 °F 88% 29.89 in 6.2 mi SE 10.4 mph - N/A   Overcast
4:55 PM 51.8 °F - 48.2 °F 88% 29.86 in 6.2 mi SE 10.4 mph - N/A   Overcast
4:57 PM 51.8 °F - 48.2 °F 88% 29.86 in 6.2 mi SSE 11.5 mph - N/A   Overcast
5:03 PM 51.8 °F - 48.2 °F 88% 29.86 in 3.7 mi SSE 11.5 mph - N/A   Overcast
5:06 PM 51.8 °F - 48.2 °F 88% 29.86 in 5.6 mi SSE 10.4 mph - N/A   Overcast
5:16 PM 51.8 °F - 48.2 °F 88% 29.86 in 3.1 mi SSE 10.4 mph - N/A   Mostly Cloudy
5:25 PM 51.8 °F - 48.2 °F 88% 29.86 in 5.0 mi SE 11.5 mph - N/A   Mostly Cloudy
5:37 PM 51.8 °F - 48.2 °F 88% 29.86 in 5.0 mi SE 10.4 mph - N/A   Overcast
5:55 PM 51.8 °F - 48.2 °F 88% 29.86 in 6.2 mi SE 8.1 mph - N/A   Overcast
6:25 PM 51.8 °F - 48.2 °F 88% 29.86 in 6.2 mi SE 10.4 mph - N/A   Mostly Cloudy
6:55 PM 51.8 °F - 48.2 °F 88% 29.86 in 6.2 mi SE 11.5 mph - N/A   Overcast
7:25 PM 51.8 °F - 48.2 °F 88% 29.86 in 6.2 mi SE 13.8 mph - N/A   Overcast
7:33 PM 51.8 °F - 48.2 °F 88% 29.86 in 6.2 mi SE 13.8 mph - N/A   Mostly Cloudy
7:55 PM 51.8 °F - 48.2 °F 88% 29.86 in 5.6 mi SE 12.7 mph - N/A   Drizzle
8:00 PM 51 °F - 49 °F 89% 29.86 in 6 mi SE 13.4 mph - - Rain Drizzle
8:25 PM 51.8 °F - 48.2 °F 88% 29.83 in 6.2 mi SE 11.5 mph - N/A   Drizzle
8:55 PM 51.8 °F - 48.2 °F 88% 29.83 in 6.2 mi ESE 11.5 mph - N/A   Overcast
8:59 PM 51.8 °F - 48.2 °F 88% 29.83 in 2.2 mi ESE 11.5 mph - N/A   Overcast
9:03 PM 51.8 °F - 48.2 °F 88% 29.83 in 6.2 mi ESE 11.5 mph - N/A   Overcast
9:16 PM 51.8 °F - 48.2 °F 88% 29.83 in 6.2 mi ESE 11.5 mph - N/A   Light Drizzle
9:25 PM 51.8 °F - 48.2 °F 88% 29.83 in 6.2 mi ESE 11.5 mph - N/A   Light Drizzle
9:55 PM 51.8 °F - 48.2 °F 88% 29.83 in 6.2 mi ESE 9.2 mph - N/A   Overcast
10:25 PM 51.8 °F - 48.2 °F 88% 29.83 in 6.2 mi ESE 10.4 mph - N/A   Mostly Cloudy
10:55 PM 51.8 °F - 48.2 °F 88% 29.80 in 6.2 mi ESE 9.2 mph - N/A   Overcast
11:25 PM 51.8 °F - 48.2 °F 88% 29.80 in 6.2 mi ESE 9.2 mph - N/A   Mostly Cloudy
11:55 PM 51.8 °F - 48.2 °F 88% 29.80 in 6.2 mi ESE 10.4 mph - N/A   Mostly Cloudy